Regional Weather Roundup
Issued by NWS

Home | Current Version | Previous Version | Graphics & Text | Print | Product List | Glossary On
Versions: 1 2 3 4 5 6 7 8 9 10 11 12 13 14 15 16 17 18 19 20 21 22 23 24 25 26 27 28 29 30 31 32 33 34 35 36 37 38 39 40 41 42 43 44 45 46 47 48 49 50
531
ASUS43 KLSX 210107
RWRMO

WEATHER SUMMARY FOR MISSOURI
NATIONAL WEATHER SERVICE SPRINGFIELD MO
700 PM CST FRI JAN 20 2017

NOTE: "FAIR" INDICATES FEW OR NO CLOUDS BELOW 12,000 FEET WITH NO
       SIGNIFICANT WEATHER AND/OR OBSTRUCTIONS TO VISIBILITY.
       CURRENT SKY AND/OR WEATHER CONDITIONS ARE NOT AVAILABLE FOR
       CHILLICOTHE AND FARMINGTON.

MOZ001>031-035>038-043-044-053-054-210200-
...NORTHERN AND WESTERN MISSOURI...

CITY           SKY/WX    TMP DP  RH WIND       PRES   REMARKS
KANSAS CTY INT CLOUDY    49  46  90 SE7       29.47R
KANSAS C DTWN  CLOUDY    51  49  92 E5        29.46S
LEE`S SUMMIT   MOCLDY    50  47  89 SE7       29.48R
ST JOSEPH      LGT RAIN  47  47 100 E6        29.47R FOG
CHILLICOTHE      N/A     48  47  96 SE5       29.50R
KIRKSVILLE     FOG       47  46  97 E8        29.52S VSB 3/4

$$
MOZ066>068-077>081-088>096-101>105-210200-
...SOUTHWEST MISSOURI...

CITY           SKY/WX    TMP DP  RH WIND       PRES   REMARKS
SPRINGFIELD    CLEAR     56  39  53 S10       29.52R
JOPLIN         CLEAR     57  39  51 SW12      29.51R
BRANSON        PTCLDY    59  37  44 SW13      29.56R

$$
MOZ032>034-039>042-045>050-055>058-069>072-210200-
...CENTRAL MISSOURI...

CITY           SKY/WX    TMP DP  RH WIND       PRES   REMARKS
COLUMBIA       CLEAR     48  47  96 E9        29.50R
JEFFERSON CITY CLEAR     49  45  86 SE8       29.50R
ROLLA          CLEAR     52  48  86 SE10      29.51R
SEDALIA        PTCLDY    51  46  83 S3        29.50R
WHITEMAN AFB   CLEAR     48  48 100 E3        29.47R
WARRENSBURG    CLEAR     46  45  93 NE5       29.48S
OSAGE BEACH    CLEAR     55  48  77 S6        29.52R

$$
MOZ051-052-059>065-210200-
...EAST CENTRAL MISSOURI...

CITY           SKY/WX    TMP DP  RH WIND       PRES   REMARKS
ST LOUIS INTL  PTCLDY    52  48  86 SE8       29.57F
SPIRIT OF STL  PTCLDY    46  46 100 E3        29.56S FOG
ST CHARLES     PTCLDY    47  47 100 E10       29.56F FOG

$$
MOZ072>076-082>087-097>100-106>115-210200-
...SOUTH CENTRAL AND SOUTHEAST MISSOURI...

CITY           SKY/WX    TMP DP  RH WIND       PRES   REMARKS
CAPE GIRARDEAU CLEAR     55  50  83 S8        29.64R
FARMINGTON     CLOUDY    56  51  84 S12G21    29.60R
POPLAR BLUFF   CLEAR     57  53  86 S9        29.63R
WEST PLAINS    CLEAR     57  48  72 S10       29.59R

$$



USA.gov is the U.S. government's official web portal to all federal, state and local government web resources and services.